period_start,C,m1,H,J0,J1,J2,J3,J4,J5,JA,JB,JC,JD,JJ,JK,JN,#
2018-07-19 00:00:56,0.22,0.67,0.00,24.58,28.50,31.51,13.77,46.88,1005.86,2023.21,3127.58,2903.25,3325.93,600.23,586.81,13.36,0000 0000 0000 0000 000000
2018-07-19 00:05:57,0.21,0.68,0.00,24.59,28.50,31.53,13.66,46.85,1005.87,2023.20,3122.97,2900.42,3322.45,599.64,586.24,13.41,0000 0000 0000 0000 000000
2018-07-19 00:10:59,0.21,0.69,0.00,24.57,28.50,31.52,13.71,46.89,1005.78,2023.13,3118.21,2897.57,3318.87,599.61,586.11,13.46,0000 0000 0000 0000 000000
2018-07-19 00:16:00,0.22,0.70,0.00,24.52,28.50,31.55,13.73,46.86,1005.41,2023.15,3113.63,2894.84,3315.45,600.03,586.44,13.51,0000 0000 0000 0000 000000
2018-07-19 00:21:01,0.20,0.71,0.00,24.43,28.50,31.61,13.72,46.98,1005.42,2023.17,3109.13,2892.16,3312.18,600.00,586.71,13.56,0000 0000 0000 0000 000000
2018-07-19 00:26:02,0.22,0.73,0.00,24.41,28.48,31.58,13.69,46.95,1005.42,2023.50,3104.97,2889.70,3309.14,599.54,586.28,13.61,0000 0000 0000 0000 000000
2018-07-19 00:31:04,0.20,0.74,0.00,24.34,28.46,31.57,13.77,46.94,1005.39,2023.81,3100.92,2887.37,3306.25,600.23,587.15,13.66,0000 0000 0000 0000 000000
2018-07-19 00:36:05,0.18,0.75,0.00,24.33,28.44,31.54,13.73,47.06,1005.42,2023.96,3097.15,2885.20,3303.56,599.49,586.24,13.71,0000 0000 0000 0000 000000
2018-07-19 00:41:07,0.18,0.75,0.00,24.32,28.41,31.50,13.71,47.11,1005.84,2023.99,3093.27,2882.95,3300.73,599.79,586.96,13.76,0000 0000 0000 0000 000000
2018-07-19 00:46:08,0.17,0.76,0.00,24.35,28.40,31.46,13.78,47.38,1005.87,2023.99,3089.58,2880.71,3297.99,599.95,587.03,13.81,0000 0000 0000 0000 000000
2018-07-19 00:51:09,0.16,0.77,0.00,24.37,28.37,31.42,13.78,47.09,1005.88,2023.99,3086.00,2878.74,3295.35,600.37,587.37,13.86,0000 0000 0000 0000 000000
2018-07-19 00:56:10,0.16,0.78,0.00,24.41,28.36,31.38,13.74,46.94,1005.89,2023.99,3082.51,2876.68,3292.65,599.78,586.75,13.91,0000 0000 0000 0000 000000
2018-07-19 01:01:12,0.16,0.79,0.00,24.43,28.35,31.32,13.72,46.92,1005.89,2023.99,3078.96,2874.56,3290.02,599.88,586.75,13.96,0000 0000 0000 0000 000000
2018-07-19 01:06:13,0.16,0.80,0.00,24.47,28.35,31.31,13.80,46.88,1005.91,2023.99,3075.47,2872.48,3287.43,600.34,587.21,14.01,0000 0000 0000 0000 000000
2018-07-19 01:11:15,0.15,0.80,0.00,24.47,28.35,31.26,13.80,46.96,1006.13,2023.99,3072.19,2870.48,3284.98,600.16,587.15,14.06,0000 0000 0000 0000 000000
2018-07-19 01:16:16,0.15,0.81,0.00,24.48,28.35,31.28,13.73,46.92,1006.16,2023.99,3069.07,2868.55,3282.51,600.35,587.28,14.11,0000 0000 0000 0000 000000
2018-07-19 01:21:17,0.11,0.82,0.00,24.53,28.35,31.26,13.72,46.88,1005.93,2023.99,3066.36,2866.92,3280.57,600.04,586.65,14.16,0000 0000 0000 0000 000000
2018-07-19 01:26:18,0.08,0.82,0.00,24.57,28.35,31.22,13.75,47.00,1006.11,2023.99,3064.37,2865.73,3279.03,600.26,587.05,14.21,0000 0000 0000 0000 000000
2018-07-19 01:31:19,0.05,0.83,0.00,24.60,28.35,31.16,13.77,47.02,1006.35,2023.99,3062.93,2864.92,3277.96,600.00,586.84,14.26,0000 0000 0000 0000 000000
2018-07-19 01:36:21,0.06,0.83,0.00,24.63,28.35,31.14,13.75,47.03,1006.37,2023.99,3061.64,2864.08,3277.00,600.30,587.01,14.31,0000 0000 0000 0000 000000
2018-07-19 01:41:22,0.06,0.83,0.00,24.66,28.37,31.09,13.76,46.89,1006.69,2023.99,3060.39,2863.29,3276.06,600.39,587.30,14.36,0000 0000 0000 0000 000000
2018-07-19 01:46:23,0.04,0.84,0.00,24.70,28.37,31.06,13.66,46.98,1006.85,2023.99,3059.50,2862.83,3275.21,599.73,586.63,14.41,0000 0000 0000 0000 000000
2018-07-19 01:51:24,0.03,0.84,0.00,24.75,28.39,31.06,13.70,46.86,1006.82,2023.99,3058.84,2862.08,3274.83,599.84,586.65,14.47,0000 0000 0000 0000 000000
2018-07-19 01:56:25,0.02,0.84,0.00,24.79,28.40,31.02,13.74,46.73,1006.85,2023.99,3058.15,2862.00,3274.13,600.28,586.95,14.52,0000 0000 0000 0000 000000
2018-07-19 02:01:27,0.00,0.84,0.00,24.82,28.42,31.02,13.75,46.69,1006.85,2023.99,3058.01,2861.98,3274.00,600.41,587.14,14.57,0000 0000 0000 0000 000000
2018-07-19 02:06:28,-0.00,0.84,0.00,24.84,28.44,31.06,13.74,46.66,1006.86,2023.97,3058.00,2861.95,3274.00,599.94,586.52,14.62,0000 0000 0000 0000 000000
2018-07-19 02:11:29,0.01,0.84,0.00,24.85,28.45,31.07,13.68,46.59,1006.86,2023.94,3057.99,2861.64,3273.95,599.65,586.40,14.67,0000 0000 0000 0000 000000
2018-07-19 02:16:30,0.01,0.84,0.00,24.87,28.47,31.10,13.77,46.71,1006.87,2023.90,3057.89,2861.21,3273.59,600.68,587.28,14.72,0000 0000 0000 0000 000000
2018-07-19 02:21:31,-0.03,0.84,0.00,24.87,28.49,31.14,13.73,46.68,1006.92,2023.47,3057.30,2861.02,3273.05,600.11,586.75,14.77,0000 0000 0000 0000 000000
2018-07-19 02:26:33,-0.01,0.84,0.00,24.87,28.51,31.18,13.72,46.74,1006.91,2023.22,3057.38,2861.01,3273.01,600.08,586.67,14.82,0000 0000 0000 0000 000000
2018-07-19 02:31:34,-0.01,0.84,0.00,24.88,28.52,31.23,13.73,46.76,1006.91,2023.08,3057.08,2861.00,3273.00,600.10,586.74,14.87,0000 0000 0000 0000 000000
2018-07-19 02:36:35,0.00,0.84,0.00,24.88,28.55,31.28,13.71,46.73,1007.02,2023.06,3057.00,2860.98,3272.98,600.10,586.80,14.92,0000 0000 0000 0000 000000
2018-07-19 02:41:37,0.00,0.84,0.00,24.90,28.56,31.33,13.74,46.81,1007.29,2023.02,3056.98,2860.93,3272.89,599.98,586.86,14.97,0000 0000 0000 0000 000000
2018-07-19 02:46:38,0.00,0.84,0.00,24.90,28.57,31.41,13.75,46.76,1007.33,2023.00,3056.99,2860.93,3272.81,600.07,586.87,15.02,0000 0000 0000 0000 000000
2018-07-19 02:51:40,0.01,0.84,0.00,24.92,28.60,31.35,13.69,46.77,1007.34,2023.00,3056.96,2860.64,3272.27,600.16,586.90,15.07,0000 0000 0000 0000 000000
2018-07-19 02:56:41,0.01,0.84,0.00,24.92,28.61,31.45,13.71,46.83,1007.34,2023.00,3056.79,2860.23,3272.06,600.05,586.87,15.12,0000 0000 0000 0000 000000
2018-07-19 03:01:42,0.01,0.84,0.00,24.94,28.62,31.46,13.67,46.80,1007.34,2023.00,3056.22,2860.03,3272.01,599.95,586.65,15.17,0000 0000 0000 0000 000000
2018-07-19 03:06:44,0.00,0.84,0.00,24.95,28.64,31.47,13.67,46.79,1007.34,2022.97,3056.05,2860.00,3271.98,599.75,586.40,15.22,0000 0000 0000 0000 000000
2018-07-19 03:11:45,-0.00,0.84,0.00,24.97,28.65,31.49,13.69,46.78,1007.35,2022.89,3056.00,2860.00,3271.86,599.60,586.33,15.27,0000 0000 0000 0000 000000
2018-07-19 03:16:46,-0.03,0.84,0.00,24.97,28.67,31.47,13.75,46.88,1007.50,2022.53,3056.00,2859.98,3271.42,600.11,586.96,15.32,0000 0000 0000 0000 000000
2018-07-19 03:21:47,-0.01,0.84,0.00,25.00,28.69,31.47,13.74,47.10,1007.80,2022.23,3056.00,2859.94,3271.16,600.18,587.08,15.37,0000 0000 0000 0000 000000
2018-07-19 03:26:48,-0.01,0.84,0.00,25.02,28.70,31.45,13.76,46.82,1007.74,2022.07,3056.00,2859.91,3271.03,599.90,586.75,15.42,0000 0000 0000 0000 000000
2018-07-19 03:31:49,-0.00,0.84,0.00,25.03,28.72,31.50,13.67,46.70,1007.81,2022.04,3055.99,2859.91,3271.02,599.92,586.76,15.47,0000 0000 0000 0000 000000
2018-07-19 03:36:51,0.02,0.84,0.00,25.06,28.73,31.52,13.72,46.75,1007.82,2022.01,3055.98,2859.44,3271.00,600.04,586.85,15.52,0000 0000 0000 0000 000000
2018-07-19 03:41:52,0.00,0.84,0.00,25.08,28.75,31.49,13.76,46.82,1007.83,2022.00,3055.91,2859.03,3270.98,600.18,587.03,15.57,0000 0000 0000 0000 000000
2018-07-19 03:46:53,0.01,0.84,0.00,25.11,28.76,31.47,13.65,46.71,1007.83,2022.00,3055.64,2859.00,3270.87,599.58,586.33,15.62,0000 0000 0000 0000 000000
2018-07-19 03:51:55,0.01,0.84,0.00,25.13,28.78,31.44,13.65,46.76,1007.83,2021.98,3055.25,2859.00,3270.33,600.18,586.89,15.67,0000 0000 0000 0000 000000
2018-07-19 03:56:56,0.01,0.84,0.00,25.17,28.80,31.48,13.68,46.77,1007.84,2021.99,3055.12,2859.00,3270.05,599.86,586.34,15.72,0000 0000 0000 0000 000000
2018-07-19 04:01:57,-0.00,0.84,0.00,25.21,28.82,31.44,13.74,46.71,1007.91,2021.95,3055.01,2858.96,3270.01,600.00,586.54,15.77,0000 0000 0000 0000 000000
2018-07-19 04:06:58,0.00,0.84,0.00,25.23,28.84,31.45,13.74,46.73,1008.18,2021.87,3054.99,2858.78,3270.00,599.95,586.62,15.82,0000 0000 0000 0000 000000
2018-07-19 04:11:59,-0.04,0.84,0.00,25.26,28.86,31.46,13.69,46.73,1008.27,2021.37,3054.87,2858.14,3269.88,600.31,586.95,15.87,0000 0000 0000 0000 000000
2018-07-19 04:17:01,0.00,0.84,0.00,25.30,28.88,31.47,13.66,46.88,1008.27,2021.02,3054.74,2858.02,3269.25,599.64,586.30,15.92,0000 0000 0000 0000 000000
2018-07-19 04:22:03,0.01,0.84,0.00,25.33,28.90,31.48,13.72,46.90,1008.29,2021.00,3054.29,2858.00,3269.04,599.98,586.35,15.97,0000 0000 0000 0000 000000
2018-07-19 04:27:04,0.00,0.84,0.00,25.35,28.92,31.48,13.73,46.75,1008.31,2021.00,3054.03,2857.99,3269.00,600.22,586.80,16.02,0000 0000 0000 0000 000000
2018-07-19 04:32:05,0.00,0.84,0.00,25.39,28.95,31.49,13.79,46.78,1008.29,2020.99,3054.00,2857.94,3268.97,600.17,586.41,16.07,0000 0000 0000 0000 000000
2018-07-19 04:37:07,0.03,0.84,0.00,25.41,28.97,31.52,13.60,46.66,1008.30,2020.98,3053.93,2857.36,3268.54,599.61,585.93,16.12,0000 0000 0000 0000 000000
2018-07-19 04:42:08,0.01,0.84,0.00,25.45,29.00,31.55,13.63,46.76,1008.31,2020.98,3053.69,2857.07,3268.08,599.99,586.29,16.17,0000 0000 0000 0000 000000
2018-07-19 04:47:09,0.01,0.84,0.00,25.48,29.01,31.57,13.71,46.58,1008.31,2020.92,3053.28,2857.00,3268.00,600.19,586.34,16.22,0000 0000 0000 0000 000000
2018-07-19 04:52:11,-0.06,0.84,0.00,25.51,29.04,31.59,13.66,46.83,1008.31,2020.30,3053.02,2857.00,3267.98,599.95,586.18,16.27,0000 0000 0000 0000 000000
2018-07-19 04:57:12,-0.01,0.84,0.00,25.54,29.06,31.61,13.68,46.72,1008.31,2020.06,3053.00,2856.95,3267.66,600.29,586.49,16.32,0000 0000 0000 0000 000000
2018-07-19 05:02:14,0.01,0.84,0.00,25.56,29.09,31.63,13.74,46.67,1008.33,2020.02,3053.00,2856.83,3267.14,600.18,586.28,16.37,0000 0000 0000 0000 000000
2018-07-19 05:07:15,0.02,0.84,0.00,25.59,29.12,31.68,13.74,46.82,1008.32,2020.00,3052.97,2856.26,3267.01,600.12,586.10,16.42,0000 0000 0000 0000 000000
2018-07-19 05:12:16,0.01,0.84,0.00,25.62,29.14,31.69,13.70,46.72,1008.32,2020.00,3052.75,2856.00,3266.98,599.84,585.79,16.47,0000 0000 0000 0000 000000
2018-07-19 05:17:17,0.01,0.84,0.00,25.65,29.17,31.73,13.64,46.72,1008.33,2019.98,3052.36,2856.00,3266.89,599.97,585.90,16.52,0000 0000 0000 0000 000000
2018-07-19 05:22:18,0.01,0.84,0.00,25.68,29.20,31.74,13.63,46.59,1008.39,2019.98,3052.01,2855.99,3266.23,599.84,585.75,16.57,0000 0000 0000 0000 000000
2018-07-19 05:27:19,-0.00,0.84,0.00,25.72,29.23,31.76,13.66,46.67,1008.64,2019.85,3052.00,2855.65,3266.01,599.87,585.90,16.62,0000 0000 0000 0000 000000
2018-07-19 05:32:21,-0.03,0.84,0.00,25.75,29.26,31.79,13.68,46.73,1008.73,2019.36,3051.95,2855.18,3265.99,599.98,585.92,16.67,0000 0000 0000 0000 000000
2018-07-19 05:37:22,-0.00,0.84,0.00,25.77,29.28,31.82,13.64,46.65,1008.78,2019.07,3051.49,2855.02,3265.76,599.49,585.61,16.72,0000 0000 0000 0000 000000
2018-07-19 05:42:23,0.00,0.84,0.00,25.80,29.31,31.83,13.69,46.65,1008.80,2019.01,3051.13,2855.00,3265.18,599.77,585.73,16.77,0000 0000 0000 0000 000000
2018-07-19 05:47:25,0.00,0.84,0.00,25.84,29.34,31.88,13.69,46.73,1008.80,2019.00,3051.00,2854.92,3265.00,599.89,585.73,16.82,0000 0000 0000 0000 000000
2018-07-19 05:52:26,0.02,0.84,0.00,25.87,29.37,31.89,13.67,46.62,1008.80,2018.99,3050.97,2854.50,3264.94,599.76,585.53,16.87,0000 0000 0000 0000 000000
2018-07-19 05:57:27,0.02,0.84,0.00,25.91,29.40,31.92,13.72,46.64,1008.81,2018.96,3050.57,2854.05,3264.40,600.13,585.75,16.92,0000 0000 0000 0000 000000
2018-07-19 06:02:29,-0.01,0.84,0.00,25.93,29.42,31.94,13.59,46.58,1008.82,2018.76,3050.01,2853.88,3264.00,599.96,585.54,16.97,0000 0000 0000 0000 000000
2018-07-19 06:07:30,-0.01,0.84,0.00,25.96,29.46,31.98,13.70,46.52,1008.82,2018.22,3049.96,2853.20,3263.53,600.00,585.55,17.02,0000 0000 0000 0000 000000
2018-07-19 06:12:31,0.01,0.84,0.00,25.99,29.48,32.00,13.65,46.62,1008.93,2018.04,3049.49,2853.01,3263.06,599.77,585.27,17.08,0000 0000 0000 0000 000000
2018-07-19 06:17:32,0.00,0.84,0.00,26.02,29.51,32.03,13.65,46.60,1009.07,2018.01,3049.02,2852.99,3263.00,599.66,585.40,17.13,0000 0000 0000 0000 000000
2018-07-19 06:22:34,0.00,0.84,0.00,26.05,29.53,32.06,13.65,46.53,1009.17,2018.00,3049.00,2852.84,3262.96,599.83,585.48,17.18,0000 0000 0000 0000 000000
2018-07-19 06:27:34,0.03,0.84,0.00,26.07,29.56,32.09,13.70,46.71,1009.27,2018.00,3048.77,2852.24,3262.41,600.34,585.85,17.23,0000 0000 0000 0000 000000
2018-07-19 06:32:36,0.02,0.85,0.00,26.11,29.59,32.12,13.72,46.58,1009.28,2017.99,3048.10,2852.01,3262.01,600.17,585.74,17.28,0000 0000 0000 0000 000000
2018-07-19 06:37:37,-0.01,0.85,0.00,26.13,29.61,32.13,13.65,46.57,1009.28,2017.94,3048.00,2852.00,3262.00,600.16,585.73,17.33,0000 0000 0000 0000 000000
2018-07-19 06:42:38,-0.02,0.84,0.00,26.16,29.64,32.15,13.68,46.60,1009.29,2017.66,3047.99,2851.95,3261.83,600.00,585.43,17.38,0000 0000 0000 0000 000000
2018-07-19 06:47:39,0.01,0.84,0.00,26.20,29.67,32.19,13.68,46.56,1009.29,2017.33,3047.71,2851.48,3261.15,599.94,585.32,17.43,0000 0000 0000 0000 000000
2018-07-19 06:52:40,0.00,0.84,0.00,26.21,29.70,32.21,13.61,46.58,1009.29,2017.18,3047.18,2851.05,3261.00,599.89,585.35,17.48,0000 0000 0000 0000 000000
2018-07-19 06:57:41,-0.01,0.84,0.00,26.26,29.72,32.24,13.68,46.89,1009.29,2017.06,3047.02,2851.00,3260.99,600.46,585.69,17.53,0000 0000 0000 0000 000000
2018-07-19 07:02:43,0.00,0.84,0.00,26.30,29.76,32.26,13.61,46.78,1009.30,2017.01,3047.00,2850.99,3260.82,599.61,584.87,17.58,0000 0000 0000 0000 000000
2018-07-19 07:07:44,0.01,0.84,0.00,26.36,29.78,32.29,13.66,46.85,1009.29,2017.00,3046.92,2850.91,3260.14,600.09,585.18,17.63,0000 0000 0000 0000 000000
2018-07-19 07:12:45,0.03,0.85,0.00,26.40,29.81,32.31,13.70,46.68,1009.31,2017.00,3046.55,2850.38,3260.00,599.73,585.02,17.68,0000 0000 0000 0000 000000
2018-07-19 07:17:46,0.00,0.85,0.00,26.42,29.84,32.34,13.67,46.78,1009.33,2016.96,3046.04,2850.02,3259.98,600.09,585.09,17.73,0000 0000 0000 0000 000000
2018-07-19 07:22:47,-0.02,0.85,0.00,26.45,29.87,32.38,13.65,46.58,1009.36,2016.76,3045.98,2850.00,3259.54,599.55,584.55,17.78,0000 0000 0000 0000 000000
2018-07-19 07:27:49,-0.02,0.84,0.00,26.48,29.90,32.42,13.78,46.83,1009.32,2016.25,3045.84,2849.87,3259.03,600.82,585.54,17.83,0000 0000 0000 0000 000000
2018-07-19 07:32:50,0.02,0.84,0.00,26.52,29.93,32.44,13.70,46.77,1009.34,2016.03,3045.34,2849.35,3258.99,600.27,585.08,17.88,0000 0000 0000 0000 000000
2018-07-19 07:37:51,0.01,0.85,0.00,26.56,29.96,32.47,13.64,46.66,1009.38,2016.01,3045.02,2849.02,3258.60,600.00,584.87,17.93,0000 0000 0000 0000 000000
2018-07-19 07:42:53,0.00,0.85,0.00,26.61,30.00,32.50,13.62,46.57,1009.39,2016.00,3044.95,2848.99,3258.03,599.84,584.54,17.98,0000 0000 0000 0000 000000
2018-07-19 07:47:54,0.02,0.85,0.00,26.65,30.03,32.54,13.72,46.52,1009.57,2016.00,3044.44,2848.71,3257.99,599.98,584.58,18.03,0000 0000 0000 0000 000000
2018-07-19 07:52:55,0.02,0.85,0.00,26.69,30.07,32.57,13.63,46.39,1009.66,2015.99,3044.10,2848.22,3257.82,599.82,584.39,18.08,0000 0000 0000 0000 000000
2018-07-19 07:57:57,-0.01,0.85,0.00,26.74,30.10,32.59,13.66,46.73,1009.78,2015.80,3044.03,2848.02,3257.18,600.23,584.93,18.13,0000 0000 0000 0000 000000
2018-07-19 08:02:58,-0.05,0.85,0.00,26.79,30.14,32.63,13.56,46.79,1009.78,2015.31,3044.00,2848.00,3257.00,599.99,584.54,18.18,0000 0000 0000 0000 000000
2018-07-19 08:07:59,-0.01,0.84,0.00,26.85,30.17,32.67,13.57,46.61,1009.78,2015.04,3043.93,2847.98,3256.98,599.75,584.20,18.23,0000 0000 0000 0000 000000
2018-07-19 08:13:01,0.04,0.85,0.00,26.86,30.21,32.70,13.68,46.73,1009.78,2015.02,3043.21,2847.42,3256.48,600.37,584.68,18.28,0000 0000 0000 0000 000000
2018-07-19 08:18:02,0.01,0.85,0.00,26.89,30.24,32.74,13.66,46.71,1009.79,2014.98,3042.98,2847.01,3256.02,600.04,584.34,18.33,0000 0000 0000 0000 000000
2018-07-19 08:23:04,0.01,0.85,0.00,26.91,30.28,32.78,13.73,46.94,1009.80,2014.83,3042.53,2846.85,3255.78,600.48,584.79,18.38,0000 0000 0000 0000 000000
2018-07-19 08:28:05,-0.01,0.85,0.00,26.94,30.31,32.83,13.65,46.56,1009.79,2014.46,3042.03,2846.32,3255.18,600.42,584.58,18.43,0000 0000 0000 0000 000000
2018-07-19 08:33:06,-0.01,0.85,0.00,26.98,30.35,32.86,13.53,46.12,1009.81,2014.19,3042.00,2846.05,3255.00,599.58,583.78,18.48,0000 0000 0000 0000 000000
2018-07-19 08:38:07,-0.01,0.85,0.00,27.01,30.38,32.89,13.63,46.70,1009.81,2014.02,3041.92,2846.00,3254.98,600.37,584.53,18.53,0000 0000 0000 0000 000000
2018-07-19 08:43:09,0.02,0.85,0.00,27.04,30.41,32.94,13.60,46.67,1009.80,2014.00,3041.24,2845.94,3254.58,599.66,583.87,18.58,0000 0000 0000 0000 000000
2018-07-19 08:48:10,0.02,0.85,0.00,27.05,30.44,32.96,13.66,46.75,1009.87,2014.00,3041.01,2845.41,3254.04,599.84,583.90,18.63,0000 0000 0000 0000 000000
2018-07-19 08:53:11,0.00,0.85,0.00,27.08,30.48,32.98,13.58,46.38,1009.85,2013.99,3041.00,2845.04,3253.98,599.85,583.90,18.68,0000 0000 0000 0000 000000
2018-07-19 08:58:12,-0.01,0.85,0.00,27.12,30.51,33.03,13.56,46.51,1009.88,2013.79,3040.79,2845.00,3253.54,599.88,583.80,18.73,0000 0000 0000 0000 000000
2018-07-19 09:03:14,-0.01,0.85,0.00,27.16,30.54,33.06,13.60,46.31,1009.85,2013.55,3040.13,2844.94,3253.10,599.84,583.85,18.78,0000 0000 0000 0000 000000
2018-07-19 09:08:15,-0.01,0.85,0.00,27.19,30.58,33.07,13.62,46.43,1009.91,2013.12,3040.00,2844.36,3252.99,600.52,584.33,18.83,0000 0000 0000 0000 000000
2018-07-19 09:13:16,0.01,0.85,0.00,27.23,30.61,33.12,13.52,46.72,1010.15,2013.01,3039.84,2844.02,3252.54,599.39,583.27,18.88,0000 0000 0000 0000 000000
2018-07-19 09:18:17,0.01,0.85,0.00,27.27,30.65,33.15,13.64,46.92,1009.86,2013.00,3039.31,2843.98,3252.03,600.16,583.89,18.93,0000 0000 0000 0000 000000
2018-07-19 09:23:18,0.01,0.85,0.00,27.30,30.68,33.19,13.71,47.02,1009.87,2012.99,3039.01,2843.65,3251.99,600.19,583.75,18.98,0000 0000 0000 0000 000000
2018-07-19 09:28:19,0.01,0.85,0.00,27.33,30.71,33.23,13.62,46.71,1010.07,2012.95,3038.95,2843.07,3251.90,599.84,583.69,19.03,0000 0000 0000 0000 000000
2018-07-19 09:33:21,0.01,0.85,0.00,27.36,30.75,33.27,13.64,46.74,1010.24,2012.89,3038.53,2843.00,3251.32,599.89,583.55,19.08,0000 0000 0000 0000 000000
2018-07-19 09:38:22,-0.03,0.85,0.00,27.41,30.78,33.29,13.61,46.71,1010.19,2012.47,3038.04,2842.99,3251.01,599.70,583.27,19.13,0000 0000 0000 0000 000000
2018-07-19 09:43:24,-0.01,0.85,0.00,27.42,30.81,33.31,13.63,46.58,1010.04,2012.11,3037.98,2842.76,3250.99,599.74,583.32,19.18,0000 0000 0000 0000 000000
2018-07-19 09:48:25,0.02,0.85,0.00,27.45,30.85,33.35,13.61,46.12,1010.09,2012.05,3037.88,2842.25,3250.60,600.08,583.32,19.23,0000 0000 0000 0000 000000
2018-07-19 09:53:26,0.01,0.85,0.00,27.49,30.88,33.37,13.59,46.77,1010.08,2012.00,3037.27,2842.02,3250.04,600.36,583.70,19.28,0000 0000 0000 0000 000000
2018-07-19 09:58:27,0.01,0.85,0.00,27.54,30.91,33.40,13.66,47.27,1010.24,2012.00,3036.99,2841.88,3249.89,600.10,583.43,19.33,0000 0000 0000 0000 000000
2018-07-19 10:03:28,0.03,0.85,0.00,27.59,30.95,33.43,13.61,47.12,1010.03,2011.97,3036.87,2841.32,3249.22,599.97,583.05,19.38,0000 0000 0000 0000 000000
2018-07-19 10:08:30,-0.01,0.85,0.00,27.65,30.99,33.46,13.62,47.13,1010.21,2011.78,3036.20,2841.02,3249.00,599.70,582.77,19.43,0000 0000 0000 0000 000000
2018-07-19 10:13:31,-0.04,0.85,0.00,27.68,31.03,33.50,13.63,47.14,1010.25,2011.34,3036.02,2840.99,3248.95,600.38,583.46,19.48,0000 0000 0000 0000 000000
2018-07-19 10:18:32,0.02,0.85,0.00,27.71,31.06,33.53,13.68,47.30,1010.21,2011.02,3035.91,2840.71,3248.35,600.49,583.55,19.53,0000 0000 0000 0000 000000
2018-07-19 10:23:34,0.02,0.85,0.00,27.77,31.11,33.56,13.62,47.23,1010.21,2011.00,3035.41,2840.07,3248.01,599.88,582.84,19.58,0000 0000 0000 0000 000000
2018-07-19 10:28:35,0.00,0.85,0.00,27.81,31.15,33.60,13.57,47.13,1010.21,2010.99,3035.05,2840.00,3247.96,599.72,582.37,19.63,0000 0000 0000 0000 000000
2018-07-19 10:33:36,-0.00,0.85,0.00,27.85,31.19,33.67,13.66,46.78,1010.25,2010.86,3034.99,2839.93,3247.29,600.18,582.93,19.68,0000 0000 0000 0000 000000
2018-07-19 10:38:37,-0.02,0.85,0.00,27.87,31.23,33.73,13.63,47.02,1010.04,2010.40,3034.79,2839.42,3247.00,599.97,582.60,19.73,0000 0000 0000 0000 000000
2018-07-19 10:43:38,-0.00,0.85,0.00,27.89,31.27,33.77,13.70,47.22,1009.93,2010.06,3034.07,2839.01,3246.90,600.32,582.80,19.78,0000 0000 0000 0000 000000
2018-07-19 10:48:39,0.01,0.85,0.00,27.91,31.31,33.80,13.60,46.83,1009.80,2010.01,3033.99,2838.99,3246.19,600.13,582.46,19.84,0000 0000 0000 0000 000000
2018-07-19 10:53:41,0.02,0.85,0.00,27.96,31.35,33.81,13.62,46.77,1009.79,2010.00,3033.58,2838.68,3246.00,599.90,582.15,19.89,0000 0000 0000 0000 000000
2018-07-19 10:58:42,0.02,0.85,0.00,28.00,31.38,33.84,13.62,46.49,1009.79,2010.00,3033.04,2838.09,3245.88,600.05,582.20,19.94,0000 0000 0000 0000 000000
2018-07-19 11:03:43,0.01,0.86,0.00,28.03,31.42,33.92,13.55,46.02,1009.79,2009.99,3032.99,2838.00,3245.30,600.08,582.18,19.99,0000 0000 0000 0000 000000
2018-07-19 11:08:44,0.01,0.86,0.00,28.06,31.46,33.96,13.62,47.10,1009.79,2009.87,3032.41,2837.79,3245.01,600.27,582.42,20.04,0000 0000 0000 0000 000000
2018-07-19 11:13:46,-0.02,0.85,0.00,28.09,31.49,34.00,13.59,46.84,1009.79,2009.29,3032.02,2837.09,3244.81,599.55,581.69,20.09,0000 0000 0000 0000 000000
2018-07-19 11:18:47,-0.01,0.85,0.00,28.13,31.53,34.03,13.59,45.82,1009.79,2009.08,3032.00,2837.00,3244.14,599.90,581.94,20.14,0000 0000 0000 0000 000000
2018-07-19 11:23:48,-0.00,0.85,0.00,28.16,31.57,34.08,13.61,45.88,1009.79,2009.01,3031.97,2837.00,3244.00,599.97,581.97,20.19,0000 0000 0000 0000 000000
2018-07-19 11:28:49,0.01,0.85,0.00,28.19,31.61,34.15,13.56,46.37,1009.78,2009.00,3031.64,2836.90,3243.95,600.44,582.24,20.24,0000 0000 0000 0000 000000
2018-07-19 11:33:50,0.04,0.86,0.00,28.20,31.64,34.18,13.55,47.13,1009.78,2008.99,3031.04,2836.18,3243.28,600.01,581.91,20.29,0000 0000 0000 0000 000000
2018-07-19 11:38:51,0.01,0.86,0.00,28.20,31.67,34.22,13.61,46.78,1009.78,2008.98,3030.63,2836.00,3243.01,599.66,581.62,20.34,0000 0000 0000 0000 000000
2018-07-19 11:43:52,0.00,0.86,0.00,28.20,31.71,34.25,13.58,45.75,1009.78,2008.97,3030.04,2835.97,3242.98,599.90,581.70,20.39,0000 0000 0000 0000 000000
2018-07-19 11:48:54,0.02,0.86,0.00,28.21,31.74,34.27,13.56,45.73,1009.78,2008.93,3030.00,2835.55,3242.62,599.98,581.86,20.44,0000 0000 0000 0000 000000
2018-07-19 11:53:55,-0.03,0.86,0.00,28.22,31.76,34.30,13.61,45.67,1009.78,2008.54,3029.96,2835.11,3242.06,600.21,581.96,20.49,0000 0000 0000 0000 000000
2018-07-19 11:58:57,-0.02,0.86,0.00,28.22,31.79,34.34,13.60,45.57,1009.75,2008.08,3029.80,2835.00,3242.00,600.10,581.89,20.54,0000 0000 0000 0000 000000
2018-07-19 12:03:58,0.00,0.86,0.00,28.22,31.81,34.37,13.59,45.59,1009.77,2008.02,3029.27,2835.00,3241.99,600.26,582.08,20.59,0000 0000 0000 0000 000000
2018-07-19 12:08:59,0.01,0.86,0.00,28.22,31.84,34.40,13.53,45.50,1009.78,2008.01,3029.02,2834.95,3241.69,599.82,581.63,20.64,0000 0000 0000 0000 000000
2018-07-19 12:14:01,0.02,0.86,0.00,28.22,31.86,34.42,13.58,45.46,1009.71,2008.00,3029.00,2834.73,3241.11,600.10,581.78,20.69,0000 0000 0000 0000 000000
2018-07-19 12:19:02,0.02,0.86,0.00,28.22,31.87,34.45,13.63,46.27,1009.48,2008.00,3028.63,2834.15,3241.00,600.38,582.15,20.74,0000 0000 0000 0000 000000
2018-07-19 12:24:03,0.00,0.86,0.00,28.22,31.90,34.50,13.65,46.69,1009.33,2008.00,3028.02,2834.00,3240.95,600.17,581.62,20.79,0000 0000 0000 0000 000000
2018-07-19 12:29:04,0.00,0.86,0.00,28.24,31.91,34.55,13.65,46.67,1009.31,2007.95,3027.99,2833.98,3240.51,600.25,581.74,20.84,0000 0000 0000 0000 000000
2018-07-19 12:34:05,-0.00,0.86,0.00,28.25,31.92,34.57,13.61,46.65,1009.31,2007.88,3027.96,2833.92,3240.05,600.15,581.54,20.89,0000 0000 0000 0000 000000
2018-07-19 12:39:06,0.01,0.86,0.00,28.25,31.95,34.60,13.63,46.76,1009.30,2007.69,3027.52,2833.41,3240.00,600.09,581.55,20.94,0000 0000 0000 0000 000000
2018-07-19 12:44:07,-0.01,0.86,0.00,28.26,31.95,34.68,13.52,46.67,1009.29,2007.46,3027.12,2833.12,3240.00,599.76,581.06,20.99,0000 0000 0000 0000 000000
2018-07-19 12:49:08,-0.01,0.86,0.00,28.27,31.97,34.69,13.50,46.44,1009.30,2007.11,3027.00,2833.00,3239.87,599.50,581.06,21.04,0000 0000 0000 0000 000000
2018-07-19 12:54:09,0.00,0.86,0.00,28.27,31.98,34.66,13.53,46.50,1009.30,2007.06,3026.97,2833.00,3239.27,599.57,581.09,21.09,0000 0000 0000 0000 000000